Regional Weather Roundup
Issued by NWS

Home | Current Version | Previous Version | Text Only | Print | Product List | Glossary On
Versions: 1 2 3 4 5 6 7 8 9 10 11 12 13 14 15 16 17 18 19 20 21 22 23 24 25 26 27 28
000
ASUS45 KBOI 231110
RWRID

IDAHO REGIONAL WEATHER ROUNDUP
NATIONAL WEATHER SERVICE BOISE ID
500 AM MDT SAT SEP 23 2017

NOTE: "FAIR" INDICATES FEW OR NO CLOUDS BELOW 12000 FEET
WITH NO SIGNIFICANT WEATHER AND/OR OBSTRUCTIONS TO VISIBILITY

IDZ012-014-231200-
SOUTHWEST IDAHO


CITY           SKY/WX    TMP DP  RH WIND       PRES   REMARKS
BOISE          CLEAR     38  35  89 SE7       30.02R WCI  33
CALDWELL       CLEAR     41  40  96 CALM      30.03S
MOUNTAIN HOME  PTCLDY    34  34 100 CALM      30.01S
$$

IDZ016-017-231200-
SOUTHCENTRAL IDAHO


CITY           SKY/WX    TMP DP  RH WIND       PRES   REMARKS
BURLEY         PTCLDY    34  31  88 CALM      30.00S
JEROME         PTCLDY    32  32 100 SE3       30.01S
TWIN FALLS     CLEAR     34  32  92 S10       30.01S WCI  26
$$

IDZ019>023-231200-
SOUTHEAST IDAHO


CITY           SKY/WX    TMP DP  RH WIND       PRES   REMARKS
IDAHO FALLS    CLEAR     35  32  88 CALM      30.03S
POCATELLO      CLOUDY    37  34  89 SE3       30.03S
REXBURG        PTCLDY    32  30  92 CALM      30.03R
$$

IDZ006-010-011-018-031-032-231200-
CENTRAL IDAHO MOUNTAINS


CITY           SKY/WX    TMP DP  RH WIND       PRES   REMARKS
MCCALL         CLEAR     30  27  88 E3        30.01R
HAILEY         CLEAR     32  30  93 CALM      30.02R
STANLEY          N/A     30  29  96 CALM      30.02R
SALMON         CLOUDY    38  33  82 CALM      30.04R
CHALLIS        PTCLDY    34  33  96 S3        30.01R
$$

IDZ002-004-006-007-026-231200-
NORTHERN IDAHO


CITY           SKY/WX    TMP DP  RH WIND       PRES   REMARKS
LEWISTON       CLOUDY    48  44  86 E7        30.06R
LOWELL           N/A     44  40  85 CALM      30.11R
COEUR D`ALENE  CLOUDY    46  40  79 S7        30.04S
MULLAN PASS    CLOUDY    32  26  78 SW3       30.02R
$$




USA.gov is the U.S. government's official web portal to all federal, state and local government web resources and services.